Location: De Har
(53.3413°N, 6.6858°E)
Time: 07:42:38
(UTC+00:00)

METEOR-M - Pass Details

Date: 22 April 2026
Orbit: 812 x 817 km, 98.7° (Epoch: 14 May)

Event Time Altitude Azimuth Distance (km) Brightness Sun altitude
Rises 03:08:24 0° 16° (NNE) 3,351 8.2 -9.9°
Reaches altitude 10° 03:10:45 10° 17° (NNE) 2,415 7.4 -9.7°
Maximum altitude 03:16:07 85° 107° (ESE) 824 4.2 -9.0°
Drops below altitude 10° 03:21:26 10° 196° (SSW) 2,397 6.1 -8.4°
Enters shadow 03:23:24 - 196° (SSW) 3,182 6.7 -8.1°
